This demonstration page uses our WeatherBlox Daily Observations layout. Learn more.

Left ArrowRight Arrow

44.89941, -97.11507

Hourly Observations for August 12, 2016

Temp ( °F °C ) Dew Point ( °F °C ) Humidity (%) Winds ( mph kmh ) Pressure ( in mb ) Visibility ( mi km ) Precip ( " mm )
12:03 am 00:03 Cloudy with Thunderstorms 68 20 63 17.2 84 84 VRB 3 6 29.91 1013 5 8 0.02 0.51
12:53 am 00:53 Cloudy with Thunderstorms 67 19.4 65 18.3 93 93 SE 6 9 29.88 1012 10 16 0.07 1.78
1:13 am 01:13 Cloudy with Nearby Thunderstorms 69 20.6 65 18.3 87 87 SSE 9 15 29.88 1012 9 14 0.03 0.76
1:20 am 01:20 Cloudy with Rain 69 20.6 66 18.9 90 90 SSE 7 11 29.88 1012 9 14 0.04 1.02
1:46 am 01:46 Cloudy with Thunderstorms 68 20 65 18.3 90 90 SE 9 15 29.91 1013 8 13 0.10 2.54
1:53 am 01:53 Cloudy with Thunderstorms 68 20 65 18.3 90 90 SE 8 13 29.88 1012 10 16 0.10 2.54
2:01 am 02:01 Cloudy with Light Rain 68 20 65 18.3 90 90 SE 13 20 29.83 1010 10 16 0.01 0.25
2:53 am 02:53 Cloudy with Light Rain 67 19.4 63 17.2 87 87 ESE 16 26 29.84 1010 10 16 0.07 1.78
3:53 am 03:53 Mostly Clear 69 20.6 63 17.2 81 81 WNW 14 22 29.87 1012 10 16 0.03 0.76
4:53 am 04:53 Clear 68 20 62 16.7 81 81 NW 10 17 29.85 1011 10 16 0.00 0.00
5:53 am 05:53 Clear 69 20.6 63 17.2 81 81 NE 3 6 29.85 1011 10 16 0.00 0.00
6:53 am 06:53 Cloudy 69 20.6 64 17.8 84 84 WNW 6 9 29.88 1012 10 16 0.00 0.00
7:33 am 07:33 Cloudy 69 20.6 66 18.9 90 90 NW 6 9 29.85 1011 10 16 0.00 0.00
7:53 am 07:53 Cloudy 70 21.1 67 19.4 90 90 NW 9 15 29.89 1012 10 16 0.00 0.00
8:53 am 08:53 Cloudy 71 21.7 69 20.6 94 94 NNW 9 15 29.91 1013 10 16 0.00 0.00
9:28 am 09:28 Cloudy 72 22.2 69 20.6 91 91 NNW 7 11 29.88 1012 10 16 0.00 0.03
9:53 am 09:53 Cloudy 72 22.2 69 20.6 91 91 NNE 6 9 29.91 1013 10 16 0.00 0.03
10:23 am 10:23 Cloudy 74 23.3 68 20 82 82 N 6 9 29.88 1012 10 16 0.00 0.00
10:53 am 10:53 Cloudy 74 23.3 65 18.3 74 74 N 7 11 29.93 1013 10 16 0.00 0.00
11:07 am 11:07 Cloudy 75 23.9 63 17.2 66 66 NNE 7 11 29.91 1013 10 16 0.00 0.00
11:25 am 11:25 Cloudy 75 23.9 63 17.2 66 66 ENE 7 11 29.91 1013 10 16 0.00 0.00
11:53 am 11:53 Mostly Sunny 77 25 63 17.2 62 62 NE 8 13 29.93 1014 10 16 0.00 0.00
12:53 pm 12:53 Mostly Sunny 79 26.1 61 16.1 54 54 VRB 7 11 29.92 1013 10 16 0.00 0.00
1:53 pm 13:53 Partly Cloudy 79 26.1 61 16.1 54 54 NW 6 9 29.92 1013 10 16 0.00 0.00
2:53 pm 14:53 Sunny 81 27.2 58 14.4 45 45 NNW 7 11 29.92 1013 10 16 0.00 0.00
3:53 pm 15:53 Mostly Sunny 80 26.7 59 15 49 49 NW 14 22 29.92 1013 10 16 0.00 0.00
4:53 pm 16:53 Sunny 80 26.7 58 14.4 47 47 NNW 15 24 29.92 1013 10 16 0.00 0.00
5:53 pm 17:53 Mostly Sunny 80 26.7 58 14.4 47 47 NNW 15 24 29.92 1013 10 16 0.00 0.00
6:53 pm 18:53 Sunny 78 25.6 59 15 52 52 NNW 12 19 29.91 1013 10 16 0.00 0.00
7:53 pm 19:53 Sunny 76 24.4 60 15.6 58 58 N 8 13 29.91 1013 10 16 0.00 0.00
8:53 pm 20:53 Clear 70 21.1 61 16.1 73 73 NNW 5 7 29.92 1013 10 16 0.00 0.00
9:53 pm 21:53 Clear 70 21.1 61 16.1 73 73 NW 3 6 29.95 1014 10 16 0.00 0.00
10:53 pm 22:53 Clear 67 19.4 61 16.1 81 81 Calm 29.96 1014 10 16 0.00 0.00
11:53 pm 23:53 Clear 66 18.9 62 16.7 87 87 Calm 29.96 1014 10 16 0.00 0.00

Powered by AerisWeather